Location: Amsterdam
(42.9386°N, 74.1886°W)
Time: 11:02:50
(UTC-05:00)

Envisat - Visible Passes

Search period start: 15 December 2018 00:00
Search period end: 25 December 2018 00:00
Orbit: 764 x 766 km, 98.2° (Epoch: 15 December)

Date Brightness Start Highest point End Pass type
(mag) Time Alt. Az. Time Alt. Az. Time Alt. Az.
15 Dec 4.7 17:04:08 10° ENE 17:05:38 11° ENE 17:07:08 10° NE visible
15 Dec 2.8 18:38:44 10° SSE 18:43:48 81° ENE 18:48:55 10° N visible
15 Dec 5.9 20:21:30 10° WSW 20:23:26 12° W 20:25:22 10° WNW visible
16 Dec 5.5 06:47:19 10° NE 06:51:34 26° E 06:55:46 10° SSE visible
16 Dec 3.4 18:02:34 10° SE 18:07:13 38° ENE 18:11:53 10° N visible
16 Dec 4.9 19:42:03 10° SSW 19:46:18 27° W 19:50:35 10° NW visible
17 Dec 6.2 06:12:39 10° ENE 06:14:25 12° E 06:16:10 10° ESE visible
17 Dec 4.3 17:27:21 10° ESE 17:30:48 19° ENE 17:34:17 10° NNE visible
17 Dec 3.5 19:04:23 10° S 19:09:22 58° W 19:14:24 10° NNW visible
18 Dec 2.9 18:27:37 10° SSE 18:32:38 65° ENE 18:37:40 10° N visible
18 Dec 5.7 20:09:08 10° SW 20:12:06 15° W 20:15:05 10° NW visible
19 Dec 5.8 06:36:28 10° NE 06:40:16 21° E 06:44:03 10° SE visible
19 Dec 3.7 17:51:42 10° SE 17:56:06 31° ENE 18:00:31 10° N visible
19 Dec 4.5 19:30:28 10° SSW 19:35:02 33° W 19:39:38 10° NNW visible
20 Dec 4.5 17:16:53 10° E 17:19:46 15° ENE 17:22:37 10° NNE visible
20 Dec 3.1 18:53:05 10° S 18:58:09 74° WSW 19:03:15 10° NNW visible
21 Dec 3.1 18:16:35 10° SE 18:21:28 51° ENE 18:26:24 10° N visible
21 Dec 5.4 19:57:10 10° SW 20:00:47 20° W 20:04:26 10° NW visible
22 Dec 5.9 06:25:46 10° NE 06:28:57 17° E 06:32:08 10° SE visible
22 Dec 3.9 17:40:56 10° ESE 17:44:59 25° ENE 17:49:05 10° NNE visible
22 Dec 4.1 19:18:59 10° S 19:23:46 42° W 19:28:36 10° NNW visible
23 Dec 4.7 17:06:43 10° E 17:08:43 12° ENE 17:10:43 10° NE visible
23 Dec 2.9 18:41:53 10° SSE 18:46:57 88° ENE 18:52:04 10° NNW visible
23 Dec 6.0 20:25:26 10° WSW 20:26:39 11° W 20:27:52 10° WNW visible
24 Dec 5.3 06:50:22 10° NE 06:54:45 28° E 06:59:06 10° SSE visible
24 Dec 3.3 18:05:36 10° SE 18:10:21 41° ENE 18:15:05 10° N visible
24 Dec 5.1 19:45:23 10° SSW 19:49:29 24° W 19:53:37 10° NW visible
